• In Belarus
  • List of Countries
  • For 7 days
  • Water Temperature
  • Satellite Maps
  • Weather Map
  • Weather Widgets
  • user-avatar
    Login

    Hourly Weather Channarayapatna

    Today, 23 April, Tuesday

    Time Temperature Precipitation Wind Pressure Humidity
    00:00 +29°C° 0.7 mm 3 mps 686 mmHg 59%
    01:00 +28°C° 0.7 mm 3 mps 686 mmHg 62%
    02:00 +28°C° 0.7 mm 2 mps 685 mmHg 64%
    03:00 +27°C° 0.7 mm 2 mps 685 mmHg 67%
    04:00 +27°C° 0.7 mm 2 mps 686 mmHg 70%
    05:00 +26°C° 0.7 mm 2 mps 686 mmHg 73%
    06:00 +26°C° 0.7 mm 2 mps 686 mmHg 71%
    07:00 +27°C° 0.7 mm 2 mps 687 mmHg 69%
    08:00 +27°C° 0.7 mm 2 mps 687 mmHg 66%
    09:00 +29°C° 0 mm 2 mps 687 mmHg 57%
    10:00 +31°C° 0 mm 2 mps 687 mmHg 48%
    11:00 +33°C° 0 mm 1 mps 688 mmHg 40%
    12:00 +34°C° 0 mm 2 mps 687 mmHg 37%
    13:00 +35°C° 0 mm 2 mps 687 mmHg 35%
    14:00 +35°C° 0 mm 2 mps 686 mmHg 32%
    15:00 +35°C° 0 mm 2 mps 686 mmHg 31%
    16:00 +35°C° 0 mm 2 mps 686 mmHg 30%
    17:00 +36°C° 0 mm 2 mps 686 mmHg 29%
    18:00 +35°C° 0 mm 2 mps 686 mmHg 33%
    19:00 +34°C° 0 mm 2 mps 686 mmHg 36%
    20:00 +32°C° 0 mm 2 mps 687 mmHg 39%
    21:00 +31°C° 0 mm 2 mps 687 mmHg 43%
    22:00 +30°C° 0 mm 1 mps 687 mmHg 46%
    23:00 +30°C° 0 mm 1 mps 687 mmHg 50%

    Tomorrow, 24 April, Wednesday

    Time Temperature Precipitation Wind Pressure Humidity
    00:00 +29°C° 0 mm 2 mps 687 mmHg 51%
    01:00 +29°C° 0 mm 2 mps 687 mmHg 53%
    02:00 +28°C° 0 mm 3 mps 686 mmHg 54%
    03:00 +28°C° 0 mm 3 mps 686 mmHg 57%
    04:00 +27°C° 0 mm 2 mps 686 mmHg 60%
    05:00 +26°C° 0 mm 1 mps 686 mmHg 63%
    06:00 +28°C° 0 mm 1 mps 687 mmHg 58%
    07:00 +29°C° 0 mm 2 mps 687 mmHg 54%
    08:00 +30°C° 0 mm 2 mps 688 mmHg 49%
    09:00 +32°C° 0 mm 2 mps 688 mmHg 40%
    10:00 +35°C° 0 mm 3 mps 688 mmHg 32%
    11:00 +36°C° 0 mm 4 mps 688 mmHg 23%
    12:00 +37°C° 0 mm 4 mps 688 mmHg 21%
    13:00 +38°C° 0 mm 4 mps 687 mmHg 18%
    14:00 +40°C° 0 mm 5 mps 686 mmHg 16%
    15:00 +38°C° 0 mm 4 mps 686 mmHg 17%
    16:00 +38°C° 0 mm 3 mps 686 mmHg 17%
    17:00 +37°C° 0 mm 3 mps 685 mmHg 18%
    18:00 +37°C° 0 mm 3 mps 686 mmHg 20%
    19:00 +36°C° 0 mm 3 mps 686 mmHg 21%
    20:00 +35°C° 0 mm 3 mps 687 mmHg 23%
    21:00 +34°C° 0 mm 3 mps 687 mmHg 27%
    22:00 +33°C° 0 mm 3 mps 687 mmHg 31%
    23:00 +31°C° 0 mm 3 mps 687 mmHg 36%

    Day after tomorrow, 25 April, Thursday

    Time Temperature Precipitation Wind Pressure Humidity
    00:00 +30°C° 0 mm 2 mps 687 mmHg 41%
    01:00 +29°C° 0 mm 2 mps 686 mmHg 45%
    02:00 +28°C° 0 mm 1 mps 686 mmHg 50%
    03:00 +28°C° 0 mm 1 mps 686 mmHg 53%
    04:00 +27°C° 0 mm 1 mps 686 mmHg 56%
    05:00 +27°C° 0 mm 1 mps 686 mmHg 59%
    06:00 +28°C° 0 mm 1 mps 687 mmHg 55%
    07:00 +29°C° 0 mm 2 mps 687 mmHg 51%
    08:00 +30°C° 0 mm 2 mps 688 mmHg 47%
    09:00 +32°C° 0 mm 2 mps 688 mmHg 39%
    10:00 +35°C° 0 mm 2 mps 688 mmHg 30%
    11:00 +37°C° 0 mm 3 mps 688 mmHg 22%
    12:00 +37°C° 0 mm 3 mps 688 mmHg 20%
    13:00 +38°C° 0 mm 3 mps 687 mmHg 17%
    14:00 +40°C° 0 mm 4 mps 686 mmHg 15%
    15:00 +40°C° 0 mm 4 mps 686 mmHg 14%
    16:00 +40°C° 0 mm 4 mps 686 mmHg 14%
    17:00 +39°C° 0 mm 3 mps 686 mmHg 14%
    18:00 +37°C° 0 mm 3 mps 686 mmHg 19%
    19:00 +35°C° 0 mm 3 mps 686 mmHg 24%
    20:00 +33°C° 0 mm 3 mps 687 mmHg 29%
    21:00 +31°C° 0 mm 3 mps 687 mmHg 40%
    22:00 +29°C° 0 mm 3 mps 687 mmHg 51%
    23:00 +28°C° 0 mm 3 mps 687 mmHg 63%

    26 April, Friday

    Time Temperature Precipitation Wind Pressure Humidity
    00:00 +28°C° 0 mm 3 mps 686 mmHg 65%
    01:00 +27°C° 0 mm 3 mps 686 mmHg 66%
    02:00 +27°C° 0 mm 2 mps 685 mmHg 68%
    03:00 +27°C° 0 mm 2 mps 685 mmHg 68%
    04:00 +26°C° 0 mm 2 mps 685 mmHg 67%
    05:00 +26°C° 0 mm 2 mps 685 mmHg 67%
    06:00 +27°C° 0 mm 2 mps 686 mmHg 59%
    07:00 +29°C° 0 mm 2 mps 687 mmHg 52%
    08:00 +30°C° 0 mm 2 mps 687 mmHg 44%
    09:00 +32°C° 0 mm 2 mps 688 mmHg 37%
    10:00 +35°C° 0 mm 2 mps 688 mmHg 30%
    11:00 +37°C° 0 mm 2 mps 688 mmHg 22%
    12:00 +38°C° 0 mm 2 mps 687 mmHg 21%
    13:00 +38°C° 0 mm 3 mps 686 mmHg 19%
    14:00 +39°C° 0 mm 3 mps 686 mmHg 17%
    15:00 +38°C° 0 mm 3 mps 685 mmHg 19%
    16:00 +37°C° 0 mm 3 mps 685 mmHg 20%
    17:00 +37°C° 0 mm 3 mps 685 mmHg 22%
    18:00 +35°C° 0 mm 3 mps 686 mmHg 30%
    19:00 +34°C° 0 mm 3 mps 686 mmHg 38%
    20:00 +31°C° 0 mm 3 mps 687 mmHg 46%
    21:00 +30°C° 0 mm 3 mps 686 mmHg 54%
    22:00 +29°C° 0 mm 3 mps 686 mmHg 62%
    23:00 +28°C° 0 mm 3 mps 686 mmHg 69%

    27 April, Saturday

    Time Temperature Precipitation Wind Pressure Humidity
    00:00 +28°C° 0 mm 3 mps 686 mmHg 70%
    01:00 +27°C° 0 mm 3 mps 685 mmHg 70%
    02:00 +27°C° 0 mm 3 mps 685 mmHg 70%
    03:00 +27°C° 0 mm 2 mps 685 mmHg 70%
    04:00 +27°C° 0 mm 2 mps 685 mmHg 69%
    05:00 +26°C° 0 mm 2 mps 685 mmHg 69%
    06:00 +28°C° 0 mm 1 mps 686 mmHg 63%
    07:00 +29°C° 0 mm 1 mps 686 mmHg 57%
    08:00 +30°C° 0 mm 1 mps 687 mmHg 51%
    09:00 +32°C° 0 mm 1 mps 687 mmHg 43%
    10:00 +33°C° 0 mm 0 mps 688 mmHg 34%
    11:00 +35°C° 0 mm 0 mps 688 mmHg 26%
    12:00 +39°C° 0 mm 1 mps 687 mmHg 23%
    13:00 +39°C° 0 mm 2 mps 686 mmHg 21%
    14:00 +40°C° 0 mm 2 mps 685 mmHg 18%
    15:00 +39°C° 0 mm 2 mps 685 mmHg 20%
    16:00 +38°C° 0 mm 2 mps 685 mmHg 21%
    17:00 +38°C° 0 mm 2 mps 685 mmHg 22%
    18:00 +36°C° 0 mm 2 mps 685 mmHg 28%
    19:00 +35°C° 0 mm 3 mps 686 mmHg 35%
    20:00 +34°C° 0 mm 4 mps 686 mmHg 41%
    21:00 +33°C° 0 mm 4 mps 686 mmHg 45%
    22:00 +33°C° 0 mm 3 mps 686 mmHg 48%
    23:00 +31°C° 0 mm 3 mps 687 mmHg 51%

    28 April, Sunday

    Time Temperature Precipitation Wind Pressure Humidity
    00:00 +30°C° 0 mm 3 mps 686 mmHg 57%
    01:00 +29°C° 0 mm 3 mps 685 mmHg 64%
    02:00 +28°C° 0 mm 4 mps 684 mmHg 70%
    03:00 +27°C° 0 mm 3 mps 684 mmHg 72%
    04:00 +27°C° 0 mm 3 mps 685 mmHg 73%
    05:00 +27°C° 0 mm 3 mps 685 mmHg 74%
    06:00 +28°C° 0 mm 2 mps 685 mmHg 68%
    07:00 +29°C° 0 mm 2 mps 686 mmHg 62%
    08:00 +30°C° 0 mm 2 mps 687 mmHg 56%
    09:00 +32°C° 0 mm 2 mps 687 mmHg 47%
    10:00 +35°C° 0 mm 2 mps 687 mmHg 38%
    11:00 +37°C° 0 mm 2 mps 687 mmHg 29%
    12:00 +38°C° 0 mm 2 mps 686 mmHg 26%
    13:00 +39°C° 0 mm 2 mps 685 mmHg 24%
    14:00 +40°C° 0 mm 2 mps 685 mmHg 21%
    15:00 +38°C° 0 mm 3 mps 684 mmHg 29%
    16:00 +36°C° 0 mm 4 mps 684 mmHg 36%
    17:00 +35°C° 0 mm 6 mps 684 mmHg 44%
    18:00 +33°C° 2.3 mm 5 mps 684 mmHg 50%
    19:00 +32°C° 2.3 mm 5 mps 685 mmHg 57%
    20:00 +29°C° 2.3 mm 5 mps 685 mmHg 64%
    21:00 +29°C° 0 mm 5 mps 685 mmHg 65%
    22:00 +28°C° 0 mm 5 mps 686 mmHg 65%
    23:00 +28°C° 0 mm 4 mps 686 mmHg 65%
    Show more